User: anonymous   Login
Location: Caltech
(34.1382°N, 118.1253°W)
Time: 22:32:04
(UTC-08:00)
Language:

Iridium 70 - Orbit

View from above orbital plane
View from above orbital plane
View from above satellite
View from above satellite

Ground track
Ground track

The orbit data is extracted from the following two-line orbital elements,

1 25342U 98032A   17324.64078059 +.00000014 +00000-0 -20959-5 0  9990
2 25342 086.3962 158.9118 0001860 091.2366 333.5383 14.34220406021228
Epoch (UTC): 20 November 2017 15:22:43
Eccentricity: 0.0001860
inclination: 86.3962°
perigee height: 776 km
apogee height: 779 km
right ascension of ascending node: 158.9118°
argument of perigee: 91.2366°
revolutions per day: 14.34220406
mean anomaly at epoch: 333.5383°
orbit number at epoch: 2122

The dashed part of the orbit path shows where the satellite is in the earth's shadow,  

DLR